| time (UTC) | temp C | wind direction | speed KPH | gust KPH | rain 1hr cm | rain 24hr cm | rain mn cm | humidity % | barometer mb |
| 20260906233357 | 16 | 59 | 0.0 | 1.6 | 0.00 | 0.10 | 0.03 | 76 | 1016.9 |
| 20260906232340 | 16 | 200 | 0.0 | 1.6 | 0.00 | 0.10 | 0.03 | 75 | 1017.0 |
| 20260906231326 | 16 | 46 | 0.0 | 1.6 | 0.00 | 0.10 | 0.03 | 75 | 1017.1 |
| 20260906230351 | 17 | 324 | 0.0 | 4.8 | 0.00 | 0.10 | 0.03 | 74 | 1017.0 |
| 20260906225348 | 17 | 74 | 0.0 | 4.8 | 0.00 | 0.10 | 0.03 | 74 | 1017.1 |
| 20260906224326 | 17 | 71 | 0.0 | 3.2 | 0.00 | 0.10 | 0.03 | 74 | 1017.0 |
| 20260906223330 | 17 | 95 | 0.0 | 3.2 | 0.00 | 0.10 | 0.03 | 75 | 1017.1 |
| 20260906222350 | 16 | 67 | 0.0 | 1.6 | 0.00 | 0.10 | 0.03 | 76 | 1017.2 |
| 20260906221328 | 16 | 176 | 0.0 | 1.6 | 0.00 | 0.10 | 0.03 | 75 | 1017.3 |
| 20260906220331 | 16 | 95 | 0.0 | 3.2 | 0.00 | 0.10 | 0.03 | 76 | 1017.3 |
| 20260906215351 | 16 | 77 | 0.0 | 1.6 | 0.00 | 0.10 | 0.03 | 81 | 1017.3 |
| 20260906214330 | 16 | 38 | 0.0 | 1.6 | 0.00 | 0.10 | 0.03 | 81 | 1017.2 |
| 20260906213330 | 15 | 360 | 0.0 | 1.6 | 0.00 | 0.10 | 0.03 | 84 | 1017.4 |
| 20260906212324 | 15 | 329 | 0.0 | 1.6 | 0.00 | 0.10 | 0.03 | 86 | 1017.4 |
| 20260906211330 | 15 | 78 | 0.0 | 1.6 | 0.00 | 0.10 | 0.03 | 87 | 1017.4 |
| 20260906210331 | 15 | 83 | 0.0 | 1.6 | 0.00 | 0.10 | 0.03 | 87 | 1017.6 |
| 20260906205351 | 14 | 80 | 0.0 | 0.0 | 0.00 | 0.10 | 0.03 | 87 | 1017.6 |
| 20260906204349 | 14 | 88 | 0.0 | 0.0 | 0.00 | 0.10 | 0.03 | 87 | 1017.8 |
| 20260906203349 | 14 | 13 | 0.0 | 1.6 | 0.00 | 0.10 | 0.03 | 86 | 1017.8 |
| 20260906202347 | 15 | 111 | 0.0 | 6.4 | 0.00 | 0.10 | 0.03 | 84 | 1017.9 |
| 20260906201330 | 15 | 69 | 0.0 | 1.6 | 0.00 | 0.10 | 0.03 | 83 | 1018.0 |
| 20260906200328 | 15 | 82 | 0.0 | 0.0 | 0.00 | 0.10 | 0.03 | 81 | 1018.0 |
| 20260906195332 | 15 | 30 | 0.0 | 0.0 | 0.00 | 0.10 | 0.03 | 81 | 1018.1 |
| 20260906194335 | 15 | 82 | 0.0 | 1.6 | 0.00 | 0.10 | 0.03 | 81 | 1018.1 |
| 20260906193338 | 15 | 15 | 0.0 | 1.6 | 0.00 | 0.10 | 0.03 | 80 | 1018.2 |
| 20260906192339 | 16 | 65 | 0.0 | 1.6 | 0.00 | 0.10 | 0.03 | 79 | 1018.2 |
| 20260906191344 | 15 | 190 | 0.0 | 3.2 | 0.00 | 0.10 | 0.03 | 79 | 1018.4 |
| 20260906190329 | 15 | 212 | 0.0 | 1.6 | 0.00 | 0.10 | 0.03 | 80 | 1018.4 |
| 20260906185332 | 15 | 226 | 0.0 | 1.6 | 0.00 | 0.10 | 0.03 | 80 | 1018.5 |
| 20260906184328 | 15 | 107 | 0.0 | 1.6 | 0.00 | 0.10 | 0.03 | 80 | 1018.5 |
| 20260906183331 | 15 | 105 | 0.0 | 1.6 | 0.00 | 0.10 | 0.03 | 79 | 1018.6 |
| 20260906182412 | 15 | 284 | 0.0 | 1.6 | 0.00 | 0.10 | 0.03 | 80 | 1018.8 |
| 20260906181328 | 15 | 262 | 0.0 | 3.2 | 0.00 | 0.10 | 0.03 | 80 | 1018.8 |
| 20260906180331 | 15 | 75 | 0.0 | 3.2 | 0.00 | 0.10 | 0.03 | 80 | 1018.8 |
| 20260906175332 | 15 | 217 | 0.0 | 3.2 | 0.00 | 0.10 | 0.03 | 79 | 1019.0 |
| 20260906174334 | 15 | 98 | 0.0 | 1.6 | 0.00 | 0.10 | 0.03 | 77 | 1019.0 |
| 20260906173332 | 15 | 67 | 0.0 | 0.0 | 0.00 | 0.10 | 0.03 | 78 | 1018.9 |
| 20260906172324 | 15 | 59 | 0.0 | 1.6 | 0.00 | 0.10 | 0.03 | 77 | 1018.9 |
| 20260906171330 | 16 | 53 | 0.0 | 1.6 | 0.00 | 0.10 | 0.03 | 77 | 1018.9 |
| 20260906170414 | 16 | 79 | 0.0 | 1.6 | 0.00 | 0.10 | 0.03 | 77 | 1019.0 |
| 20260906165346 | 16 | 47 | 0.0 | 0.0 | 0.00 | 0.10 | 0.03 | 76 | 1018.9 |
| 20260906164344 | 16 | 51 | 0.0 | 0.0 | 0.10 | 0.10 | 0.03 | 76 | 1018.9 |
| 20260906163351 | 16 | 43 | 0.0 | 0.0 | 0.10 | 0.10 | 0.03 | 76 | 1018.9 |
| 20260906162351 | 16 | 90 | 0.0 | 0.0 | 0.10 | 0.10 | 0.03 | 77 | 1018.9 |
| 20260906161347 | 16 | 90 | 0.0 | 0.0 | 0.10 | 0.10 | 0.03 | 79 | 1018.9 |
| 20260906160350 | 15 | 143 | 0.0 | 0.0 | 0.10 | 0.10 | 0.03 | 86 | 1019.0 |
| 20260906155410 | 13 | 220 | 0.0 | 0.0 | 0.10 | 0.10 | 0.03 | 88 | 1019.0 |
| 20260906154325 | 13 | 65 | 0.0 | 0.0 | 0.00 | 0.00 | 0.00 | 88 | 1019.1 |
| 20260906153352 | 13 | 76 | 0.0 | 0.0 | 0.00 | 0.00 | 0.00 | 88 | 1019.1 |
| 20260906152329 | 13 | 40 | 0.0 | 0.0 | 0.00 | 0.00 | 0.00 | 91 | 1019.3 |
| 20260906151330 | 13 | 56 | 0.0 | 1.6 | 0.00 | 0.00 | 0.00 | 91 | 1019.3 |
| 20260906150333 | 13 | 117 | 0.0 | 0.0 | 0.00 | 0.00 | 0.00 | 92 | 1019.4 |
| 20260906145336 | 12 | 215 | 0.0 | 0.0 | 0.00 | 0.00 | 0.00 | 92 | 1019.4 |
| 20260906144332 | 12 | 215 | 0.0 | 0.0 | 0.00 | 0.00 | 0.00 | 91 | 1019.5 |
| 20260906143350 | 12 | 215 | 0.0 | 0.0 | 0.00 | 0.00 | 0.00 | 91 | 1019.5 |
| 20260906142411 | 12 | 215 | 0.0 | 0.0 | 0.00 | 0.00 | 0.00 | 91 | 1019.7 |
| 20260906141350 | 12 | 215 | 0.0 | 0.0 | 0.00 | 0.00 | 0.00 | 91 | 1019.6 |
| 20260906140353 | 12 | 142 | 0.0 | 0.0 | 0.00 | 0.00 | 0.00 | 91 | 1019.6 |
| 20260906135329 | 12 | 103 | 0.0 | 0.0 | 0.00 | 0.00 | 0.00 | 91 | 1019.8 |
| 20260906134351 | 12 | 135 | 0.0 | 0.0 | 0.00 | 0.00 | 0.00 | 91 | 1019.6 |
| 20260906133336 | 12 | 194 | 0.0 | 0.0 | 0.00 | 0.00 | 0.00 | 91 | 1019.7 |
| 20260906132339 | 12 | 92 | 0.0 | 0.0 | 0.00 | 0.00 | 0.00 | 91 | 1019.8 |
| 20260906131331 | 12 | 131 | 0.0 | 0.0 | 0.00 | 0.00 | 0.00 | 91 | 1019.9 |
| 20260906130328 | 12 | 131 | 0.0 | 0.0 | 0.00 | 0.00 | 0.00 | 90 | 1020.1 |
| 20260906125350 | 12 | 69 | 0.0 | 0.0 | 0.00 | 0.00 | 0.00 | 90 | 1020.2 |
| 20260906124350 | 12 | 91 | 0.0 | 0.0 | 0.00 | 0.00 | 0.00 | 90 | 1020.1 |
| 20260906123353 | 12 | 92 | 0.0 | 1.6 | 0.00 | 0.00 | 0.00 | 90 | 1020.1 |
| 20260906122349 | 12 | 91 | 0.0 | 0.0 | 0.00 | 0.00 | 0.00 | 90 | 1019.7 |
| 20260906121346 | 12 | 115 | 0.0 | 0.0 | 0.00 | 0.00 | 0.00 | 90 | 1020.0 |
| 20260906120325 | 12 | 70 | 0.0 | 0.0 | 0.00 | 0.00 | 0.00 | 90 | 1020.0 |
| 20260906115351 | 12 | 46 | 0.0 | 0.0 | 0.00 | 0.10 | 0.00 | 90 | 1019.8 |
| 20260906114348 | 12 | 46 | 0.0 | 0.0 | 0.00 | 0.10 | 0.00 | 90 | 1019.7 |
| 20260906113327 | 12 | 46 | 0.0 | 0.0 | 0.00 | 0.10 | 0.00 | 90 | 1019.7 |
| 20260906112346 | 12 | 34 | 0.0 | 0.0 | 0.00 | 0.10 | 0.00 | 90 | 1019.9 |
| 20260906111349 | 12 | 34 | 0.0 | 0.0 | 0.00 | 0.10 | 0.00 | 90 | 1020.2 |
| 20260906110346 | 12 | 34 | 0.0 | 0.0 | 0.00 | 0.10 | 0.00 | 90 | 1020.2 |
| 20260906105325 | 12 | 51 | 0.0 | 0.0 | 0.00 | 0.10 | 0.00 | 90 | 1020.3 |
| 20260906104409 | 11 | 55 | 0.0 | 0.0 | 0.00 | 0.10 | 0.00 | 90 | 1020.5 |
| 20260906103326 | 11 | 80 | 0.0 | 0.0 | 0.00 | 0.10 | 0.00 | 90 | 1020.6 |
| 20260906102350 | 11 | 86 | 0.0 | 1.6 | 0.00 | 0.10 | 0.00 | 90 | 1020.6 |
| 20260906101328 | 11 | 105 | 0.0 | 0.0 | 0.00 | 0.10 | 0.00 | 90 | 1020.6 |
| 20260906100354 | 11 | 105 | 0.0 | 0.0 | 0.00 | 0.10 | 0.00 | 90 | 1020.7 |
| 20260906095330 | 11 | 105 | 0.0 | 0.0 | 0.00 | 0.20 | 0.00 | 90 | 1020.7 |
| 20260906094332 | 11 | 105 | 0.0 | 0.0 | 0.00 | 0.20 | 0.00 | 89 | 1020.7 |
| 20260906093328 | 11 | 105 | 0.0 | 0.0 | 0.00 | 0.20 | 0.00 | 89 | 1020.7 |
| 20260906092352 | 11 | 105 | 0.0 | 0.0 | 0.00 | 0.20 | 0.00 | 89 | 1020.8 |
| 20260906091351 | 11 | 105 | 0.0 | 0.0 | 0.00 | 0.20 | 0.00 | 89 | 1020.7 |
| 20260906090329 | 11 | 105 | 0.0 | 0.0 | 0.00 | 0.20 | 0.00 | 89 | 1020.9 |
| 20260906085332 | 11 | 74 | 0.0 | 0.0 | 0.00 | 0.30 | 0.00 | 89 | 1021.1 |
| 20260906084328 | 11 | 67 | 0.0 | 0.0 | 0.00 | 0.30 | 0.00 | 89 | 1021.2 |
| 20260906083353 | 12 | 71 | 0.0 | 0.0 | 0.00 | 0.30 | 0.00 | 89 | 1021.4 |
| 20260906082349 | 12 | 71 | 0.0 | 0.0 | 0.00 | 0.30 | 0.00 | 88 | 1021.4 |
| 20260906081349 | 12 | 74 | 0.0 | 0.0 | 0.00 | 0.30 | 0.00 | 88 | 1021.4 |
| 20260906080326 | 12 | 53 | 0.0 | 0.0 | 0.00 | 0.30 | 0.00 | 88 | 1021.5 |
| 20260906075338 | 12 | 55 | 0.0 | 0.0 | 0.00 | 0.30 | 0.00 | 87 | 1021.5 |
| 20260906074327 | 12 | 40 | 0.0 | 0.0 | 0.00 | 0.30 | 0.00 | 87 | 1021.4 |
| 20260906073336 | 12 | 87 | 0.0 | 0.0 | 0.00 | 0.30 | 0.00 | 86 | 1021.4 |
| 20260906072341 | 12 | 26 | 0.0 | 0.0 | 0.00 | 0.30 | 0.00 | 86 | 1021.5 |
| 20260906071325 | 12 | 41 | 0.0 | 0.0 | 0.00 | 0.30 | 0.00 | 86 | 1021.6 |
| 20260906070351 | 12 | 94 | 0.0 | 0.0 | 0.00 | 0.30 | 0.00 | 86 | 1021.6 |
| 20260906065351 | 12 | 30 | 0.0 | 0.0 | 0.00 | 0.30 | 0.00 | 86 | 1021.7 |
| 20260906064329 | 12 | 56 | 0.0 | 0.0 | 0.00 | 0.30 | 0.00 | 86 | 1021.7 |
| 20260906063333 | 12 | 5 | 0.0 | 0.0 | 0.00 | 0.30 | 0.00 | 86 | 1021.7 |
| 20260906062352 | 12 | 37 | 0.0 | 0.0 | 0.00 | 0.30 | 0.00 | 86 | 1021.6 |
| 20260906061350 | 12 | 37 | 0.0 | 0.0 | 0.00 | 0.30 | 0.00 | 86 | 1021.6 |
| 20260906060325 | 12 | 5 | 0.0 | 0.0 | 0.00 | 0.30 | 0.00 | 86 | 1021.6 |
| 20260906055339 | 12 | 16 | 0.0 | 0.0 | 0.00 | 0.30 | 0.05 | 85 | 1021.7 |
| 20260906054327 | 12 | 27 | 0.0 | 1.6 | 0.00 | 0.30 | 0.05 | 85 | 1021.7 |
| 20260906053351 | 12 | 16 | 0.0 | 0.0 | 0.00 | 0.30 | 0.05 | 85 | 1021.7 |
| 20260906052411 | 12 | 88 | 0.0 | 0.0 | 0.00 | 0.30 | 0.05 | 85 | 1021.8 |
| 20260906051349 | 12 | 57 | 0.0 | 0.0 | 0.00 | 0.30 | 0.05 | 85 | 1021.7 |
| 20260906050348 | 12 | 22 | 0.0 | 0.0 | 0.00 | 0.30 | 0.05 | 85 | 1021.6 |
| 20260906045323 | 12 | 24 | 0.0 | 1.6 | 0.00 | 0.30 | 0.05 | 85 | 1021.7 |
| 20260906044350 | 12 | 34 | 0.0 | 1.6 | 0.00 | 0.30 | 0.05 | 84 | 1021.6 |
| 20260906043329 | 12 | 27 | 0.0 | 3.2 | 0.00 | 0.30 | 0.05 | 84 | 1021.5 |
| 20260906042330 | 12 | 59 | 0.0 | 1.6 | 0.00 | 0.30 | 0.05 | 84 | 1021.4 |
| 20260906041329 | 12 | 12 | 0.0 | 0.0 | 0.00 | 0.30 | 0.05 | 84 | 1021.4 |
| 20260906040328 | 12 | 17 | 0.0 | 1.6 | 0.00 | 0.30 | 0.05 | 84 | 1021.5 |
| 20260906035351 | 12 | 11 | 0.0 | 1.6 | 0.00 | 0.30 | 0.05 | 84 | 1021.5 |
| 20260906034350 | 12 | 30 | 0.0 | 0.0 | 0.00 | 0.30 | 0.05 | 83 | 1021.5 |
| 20260906033348 | 12 | 25 | 0.0 | 0.0 | 0.00 | 0.30 | 0.05 | 83 | 1021.5 |
| 20260906032346 | 12 | 31 | 0.0 | 0.0 | 0.00 | 0.30 | 0.05 | 83 | 1021.5 |
| 20260906031344 | 12 | 30 | 0.0 | 0.0 | 0.00 | 0.30 | 0.05 | 83 | 1021.5 |
| 20260906030352 | 12 | 24 | 0.0 | 0.0 | 0.00 | 0.30 | 0.05 | 82 | 1021.5 |
| 20260906025347 | 12 | 18 | 0.0 | 0.0 | 0.00 | 0.30 | 0.05 | 82 | 1021.6 |
| 20260906024326 | 12 | 27 | 0.0 | 0.0 | 0.00 | 0.30 | 0.05 | 82 | 1021.6 |
| 20260906023330 | 12 | 61 | 0.0 | 0.0 | 0.00 | 0.30 | 0.05 | 82 | 1021.5 |
| 20260906022332 | 12 | 23 | 0.0 | 1.6 | 0.00 | 0.30 | 0.05 | 81 | 1021.5 |
| 20260906021324 | 12 | 31 | 0.0 | 0.0 | 0.00 | 0.30 | 0.05 | 81 | 1021.5 |
| 20260906020330 | 12 | 33 | 0.0 | 1.6 | 0.00 | 0.30 | 0.05 | 81 | 1021.3 |
| 20260906015351 | 13 | 32 | 0.0 | 1.6 | 0.00 | 0.30 | 0.05 | 81 | 1021.3 |
| 20260906014349 | 13 | 26 | 0.0 | 1.6 | 0.00 | 0.30 | 0.05 | 80 | 1021.3 |
| 20260906013328 | 13 | 29 | 0.0 | 1.6 | 0.00 | 0.30 | 0.05 | 80 | 1021.2 |
| 20260906012350 | 13 | 26 | 0.0 | 1.6 | 0.00 | 0.30 | 0.05 | 80 | 1021.1 |
| 20260906011328 | 13 | 349 | 0.0 | 0.0 | 0.00 | 0.30 | 0.05 | 79 | 1021.1 |
| 20260906010333 | 13 | 10 | 0.0 | 0.0 | 0.00 | 0.30 | 0.05 | 79 | 1021.1 |
| 20260906005326 | 13 | 10 | 0.0 | 0.0 | 0.00 | 0.30 | 0.05 | 79 | 1021.1 |
| 20260906004352 | 13 | 10 | 0.0 | 0.0 | 0.00 | 0.30 | 0.05 | 79 | 1021.0 |
| 20260906003337 | 13 | 301 | 0.0 | 0.0 | 0.00 | 0.30 | 0.05 | 79 | 1021.1 |
| 20260906002328 | 13 | 302 | 0.0 | 0.0 | 0.00 | 0.30 | 0.05 | 79 | 1021.1 |
| 20260906001325 | 13 | 336 | 0.0 | 0.0 | 0.00 | 0.30 | 0.05 | 79 | 1021.1 |
| 20260906000352 | 13 | 27 | 0.0 | 0.0 | 0.00 | 0.30 | 0.05 | 78 | 1021.1 |
| 20260905235327 | 13 | 336 | 0.0 | 1.6 | 0.00 | 0.30 | 0.05 | 78 | 1021.0 |
| 20260905234329 | 13 | 277 | 0.0 | 0.0 | 0.00 | 0.30 | 0.05 | 78 | 1021.0 |